Home   Weather   Concepción   Past weeks

Flag for Chile Past Weather in Concepción, Chile — Yesterday and Last 2 Weeks

Now
63 °F

Passing clouds.


Feels Like: 63 °F
Forecast: 47 / 61 °F
Wind: 8 mph from Southwest

Location: Concepcion Airport

Current Time: Apr 25, 2017 at 3:38:12 pm

Latest Report: Apr 25, 2017 at 3:00 pm


Visibility: N/A

Pressure: 30.24 "Hg

Humidity: 59%

Dew Point: 48 °F

Location of ConcepciónLocation

Past Weather in Concepción — Graph

°F

Concepción Temperature Yesterday

Maximum temperature yesterday: 61 °F (at 1:00 pm)
Minimum temperature yesterday: 46 °F (at 3:00 am)
Average temperature yesterday: 52 °F

High & Low Weather Summary for the Past Weeks

 TemperatureHumidityPressure
High75 °F (Apr 11, 1:00 pm)100% (Apr 12, 12:00 am)30.24 "Hg (Apr 12, 12:00 am)
Low45 °F (Apr 25, 6:00 am)50% (Apr 11, 1:00 pm)29.80 "Hg (Apr 11, 6:00 pm)
Average58 °F85%30.02 "Hg
* Reported Apr 10 2:00 pm — Apr 25 2:00 pm, Concepción, Weather by CustomWeather, © 2017

Note: Actual official high and low records may vary slightly from our data, if they occured in-between our weather recording intervals... More about our weather records

Advertising

Concepción Weather History for the Previous 24 Hours

Scroll right to see more
 ConditionsComfort  
Time TempWeatherWind HumidityBarometerVisibility
2:00 pm
Tue, Apr 25
59 °FScattered clouds.6 mph68%30.24 "HgN/A
1:00 pm59 °FScattered clouds.3 mph63%30.24 "HgN/A
12:00 pm57 °FPartly sunny.No wind82%30.24 "HgN/A
11:00 am52 °FScattered clouds.No wind100%30.21 "HgN/A
10:00 am50 °FFog.No wind100%30.18 "Hg5 mi
9:12 am46 °FFog.2 mph93%30.18 "Hg3 mi
9:00 am45 °FFog.No wind100%30.15 "Hg1 mi
8:07 am46 °FFog.2 mph93%30.15 "Hg3 mi
8:00 am45 °FFog.1 mph100%30.12 "Hg1 mi
7:19 am46 °FFog.No wind100%30.12 "Hg1 mi
7:00 am45 °FPassing clouds.1 mph100%30.12 "HgN/A
6:00 am45 °FFog.No wind93%30.09 "Hg3 mi
5:00 am46 °FFog.2 mph93%30.09 "Hg2 mi
4:00 am46 °FFog.2 mph93%30.07 "Hg1 mi
3:00 am46 °FFog.2 mph100%30.07 "Hg1 mi
2:00 am48 °FFog.1 mph94%30.07 "Hg1 mi
1:00 am48 °FFog.2 mph100%30.07 "Hg1 mi
12:00 am50 °FFog.2 mph100%30.07 "Hg0 mi
11:01 pm
Mon, Apr 24
50 °FFog.2 mph94%30.04 "Hg0 mi
10:22 pm50 °FFog.No wind100%30.04 "Hg1 mi
10:00 pm52 °FClear.No wind100%30.04 "Hg4 mi
9:00 pm54 °FClear.No wind94%30.04 "Hg10 mi
8:00 pm55 °FPassing clouds.2 mph88%30.01 "HgN/A
7:00 pm57 °FPartly sunny.8 mph88%29.98 "HgN/A
6:00 pm57 °FPartly sunny.10 mph94%29.98 "HgN/A
5:00 pm57 °FSprinkles. Mostly cloudy.5 mph94%29.98 "Hg2 mi
4:00 pm59 °FSprinkles. More clouds than sun.10 mph77%29.98 "Hg5 mi
3:00 pm57 °FSprinkles. Mostly cloudy.9 mph82%30.01 "Hg4 mi
Weather by CustomWeather, © 2017

See weather overviewHow to use our weather pages